Location: Newark
(52.9447°N, 5.7817°E)
Time: 00:49:43
(UTC+00:00)

ISS - Pass Details

Date: 24 September 2020
Orbit: 417 x 420 km, 51.6° (Epoch: 27 October)

Event Time Altitude Azimuth Distance (km) Brightness Sun altitude
Rises 18:11:19 0° 243° (WSW) 2,360 1.1 -7.1°
Reaches altitude 10° 18:13:26 10° 238° (WSW) 1,499 -0.2 -7.4°
Maximum altitude 18:16:42 49° 162° (SSE) 554 -3.3 -7.9°
Enters shadow 18:19:48 11° 88° (E) 1,436 -1.7 -8.4°
